📊 Raw Sensor Data

Showing records 43726 to 43750 of 85,023 total

ID Distance (ft) Battery V Battery A Int Temp (°F) Int Humid (%) Ext Temp (°F) Solar V RSSI SNR Time Stamp
41310 15.2 3.94 0 53 42 59 4.50 -68 8 05/22/2025 06:15 AM
41309 15.2 3.84 -9 51 42 54 4.50 -68 8 05/22/2025 06:00 AM
41308 15.2 3.84 -9 52 42 53 4.10 -68 8 05/22/2025 05:45 AM
41307 15.2 3.85 -5 52 42 54 1.90 -67 8 05/22/2025 05:30 AM
41306 15.2 3.86 -5 52 42 54 0.00 -67 8 05/22/2025 05:15 AM
41305 14.9 3.94 -5 53 42 55 0.00 -68 7 05/22/2025 05:00 AM
41304 14.9 3.87 -5 53 43 55 0.10 -69 8 05/22/2025 04:45 AM
41303 14.9 3.94 -5 53 43 55 0.00 -69 8 05/22/2025 04:30 AM
41302 14.9 3.84 -5 53 43 55 0.00 -68 8 05/22/2025 04:15 AM
41301 14.9 3.87 -5 54 43 55 0.10 -68 8 05/22/2025 04:00 AM
41300 14.9 3.94 -5 55 42 56 0.00 -68 8 05/22/2025 03:45 AM
41299 14.9 3.87 -5 55 42 57 0.00 -68 8 05/22/2025 03:30 AM
41298 14.9 3.87 -5 56 42 57 0.00 -68 7 05/22/2025 03:15 AM
41297 14.9 3.87 -5 56 43 58 0.10 -67 8 05/22/2025 03:00 AM
41296 14.9 3.87 -5 56 42 58 0.00 -68 7 05/22/2025 02:45 AM
41295 14.9 3.87 -5 56 42 59 0.00 -68 8 05/22/2025 02:30 AM
41294 14.9 3.87 -5 56 42 59 0.00 -68 8 05/22/2025 02:15 AM
41293 14.9 3.95 -5 55 43 59 0.00 -70 7 05/22/2025 02:00 AM
41292 14.9 3.88 -5 54 43 57 0.00 -68 8 05/22/2025 01:45 AM
41291 14.9 3.88 -5 54 43 55 0.00 -70 8 05/22/2025 01:30 AM
41290 14.9 3.88 -5 55 43 56 0.00 -69 7 05/22/2025 01:15 AM
41289 14.9 3.95 -5 56 43 57 0.00 -68 8 05/22/2025 01:00 AM
41288 14.9 3.95 -5 56 44 58 0.00 -69 8 05/22/2025 12:45 AM
41287 14.9 3.89 -5 56 44 58 0.00 -68 8 05/22/2025 12:30 AM
41286 14.9 3.89 -5 57 44 58 0.00 -69 8 05/22/2025 12:15 AM